Weather History for CYDQ - October, 2013

Change the Weather History Date:

Saturday, October 26, 2013

  Actual Average Record
Temperature  
Mean Temperature 47 °F -  
Max Temperature 61 °F 39 °F 60 °F (2003)
Min Temperature 33 °F 24 °F 3 °F (2008)
Degree Days  
Heating Degree Days 18    
Moisture  
Dew Point 33 °F    
Average Humidity 54    
Maximum Humidity 96    
Minimum Humidity 19    
Precipitation  
Precipitation 0.04 in - - ()
Sea Level Pressure  
Sea Level Pressure 30.03 in    
Wind  
Wind Speed 9 mph ()    
Max Wind Speed 24 mph    
Max Gust Speed 30 mph    
Visibility 9.1 miles    
Events Rain    
Averages and records for this station are not official NWS values.
T = Trace of Precipitation, MM = Missing Value Source: Averaged Metar Reports

Daily Weather History Graph

Daily Weather History Graph

Search for Another Location

Airport or City:

Trip Planner

Search our weather history database for the weather conditions in past years. The results will help you decide how hot, cold, wet, or windy it might be!

Date:

Astronomy

Oct. 26, 2013 Rise Set
Actual Time 7:55 AM MST 5:33 PM MST
Civil Twilight 7:16 AM MST 6:11 PM MST
Nautical Twilight 6:33 AM MST 6:55 PM MST
Astronomical Twilight 5:50 AM MST 7:37 PM MST
Moon 11:49 PM MST (10/26) 2:22 PM MST (10/26)
Length of Visible Light 10h 55m
Length of Day
9h 38m
Waning Gibbous, 52% of the Moon is Illuminated
Oct 26
Waning Gibbous
Oct 26
Last Quarter
Nov 3
New
Nov 9
First Quarter
Nov 17
Full

Hourly Weather History & Observations

Time (MST) Temp. Windchill Dew Point Humidity Pressure Visibility Wind Dir Wind Speed Gust Speed Precip Events Conditions
12:00 AM 51.8 °F - 30.2 °F 44% 30.06 in 9.0 mi West 12.7 mph 18.4 mph N/A   Clear
1:00 AM 50.0 °F - 28.4 °F 43% 30.07 in 9.0 mi NW 6.9 mph - N/A   Partly Cloudy
2:00 AM 53.6 °F - 28.4 °F 38% 30.07 in 9.0 mi West 9.2 mph - N/A   Clear
3:00 AM 53.6 °F - 28.4 °F 38% 30.06 in 9.0 mi WSW 9.2 mph - N/A   Overcast
4:00 AM 46.4 °F 45.2 °F 30.2 °F 53% 30.05 in 9.0 mi NE 3.5 mph - N/A   Mostly Cloudy
5:00 AM 45 °F - 33 °F 50% 30.05 in 10 mi ENE 2.3 mph - -   Overcast
5:00 AM 44.6 °F 43.1 °F 32.0 °F 61% 30.05 in 9.0 mi NE 3.5 mph - N/A   Overcast
6:00 AM 44.6 °F 41.4 °F 32.0 °F 61% 30.04 in 9.0 mi West 5.8 mph - N/A   Mostly Cloudy
7:00 AM 55.4 °F - 30.2 °F 38% 30.00 in 9.0 mi WSW 12.7 mph 18.4 mph N/A   Overcast
8:00 AM 51.8 °F - 30.2 °F 44% 30.01 in 9.0 mi WSW 9.2 mph - N/A   Overcast
9:00 AM 55.4 °F - 28.4 °F 36% 30.01 in 9.0 mi West 15.0 mph 21.9 mph N/A   Overcast
10:00 AM 57.2 °F - 28.4 °F 33% 30.02 in 9.0 mi West 15.0 mph 23.0 mph N/A   Partly Cloudy
11:00 AM 59 °F - 28 °F 19% 30.01 in 10 mi West 20.7 mph - -  
11:00 AM 59.0 °F - 28.4 °F 31% 30.01 in 9.0 mi West 24.2 mph 29.9 mph N/A   Clear
12:00 PM 60.8 °F - 30.2 °F 31% 30.01 in 9.0 mi West 16.1 mph 24.2 mph N/A   Clear
1:00 PM 59.0 °F - 30.2 °F 34% 30.01 in 9.0 mi West 18.4 mph - N/A   Clear
2:00 PM 59.0 °F - 30.2 °F 34% 30.01 in 9.0 mi West 13.8 mph 20.7 mph N/A   Clear
3:00 PM 57.2 °F - 32.0 °F 38% 30.01 in 9.0 mi West 12.7 mph - N/A   Clear
4:00 PM 55.4 °F - 32.0 °F 41% 30.01 in 9.0 mi West 11.5 mph - N/A   Partly Cloudy
5:00 PM 54 °F - 33 °F 32% 30.01 in 10 mi West 12.7 mph - -  
5:00 PM 53.6 °F - 32.0 °F 44% 30.01 in 9.0 mi West 12.7 mph - N/A   Scattered Clouds
6:00 PM 51.8 °F - 32.0 °F 47% 30.01 in 9.0 mi WNW 5.8 mph - N/A   Mostly Cloudy
7:00 PM 48.2 °F - 33.8 °F 58% 29.99 in 9.0 mi WNW 3.5 mph - N/A   Overcast
8:00 PM 46.4 °F - 35.6 °F 66% 30.01 in 9.0 mi Calm Calm - N/A   Overcast
8:46 PM 46.4 °F - 33.8 °F 62% 30.01 in 9.0 mi Variable 2.3 mph - N/A Rain Light Rain
9:00 PM 46.4 °F - 35.6 °F 66% 30.01 in 9.0 mi Variable 2.3 mph - N/A Rain Light Rain
9:03 PM 44.6 °F 43.1 °F 37.4 °F 76% 30.01 in 9.0 mi SW 3.5 mph - N/A   Overcast
9:04 PM 44.6 °F 43.1 °F 37.4 °F 76% 30.01 in 9.0 mi WSW 3.5 mph - N/A Rain Light Rain
9:43 PM 46.4 °F 44.3 °F 39.2 °F 76% 30.03 in 9.0 mi WNW 4.6 mph - N/A   Overcast
9:54 PM 44.6 °F 39.7 °F 37.4 °F 76% 30.04 in 9.0 mi North 9.2 mph - N/A Rain Light Rain
10:00 PM 44.6 °F 38.4 °F 37.4 °F 76% 30.04 in 9.0 mi North 12.7 mph - N/A Rain Light Rain
10:05 PM 42.8 °F 34.8 °F 37.4 °F 81% 30.05 in 9.0 mi North 17.3 mph 23.0 mph N/A   Overcast
10:10 PM 42.8 °F 34.5 °F 37.4 °F 81% 30.05 in 9.0 mi North 18.4 mph 25.3 mph N/A Rain Light Rain
11:00 PM 38 °F - 37 °F 96% 30.10 in 10 mi NE 20.7 mph - - Rain Light Rain
11:00 PM 39.2 °F 29.6 °F 37.4 °F 93% 30.10 in 9.0 mi NE 19.6 mph 26.5 mph N/A Rain Light Rain